Wetbulb
57.87 55.33 53.60 51.03 42.09 38.52 34.60 37.28 39.68 38.93 40.91 41.37 43.41 42.93 43.12 43.82 44.32 39.67 51.18 58.12 59.75 61.96 64.44 68.08 71.22 72.06 72.27 72.58 72.31 72.18 71.79 72.03 71.11 71.38 70.65 70.38 69.95 69.14 68.48 69.28 69.52 70.15 70.23 69.50 68.50 67.49 66.90 66.41 66.23
53.86 54.55 51.42 44.96 38.85 31.68 33.11 37.83 39.99 40.56 40.72 42.14 42.51 42.35 42.11 43.59 46.53 49.42 52.52 58.40 60.67 62.52 63.77 65.45 69.88 71.33 71.67 72.35 72.30 72.24 72.22 71.50 71.08 70.45 69.60 68.85 68.83 68.77 67.92 67.29 67.47 67.89 68.37 67.22 65.72 64.42 63.39 62.90 62.56
53.32 51.80 48.02 41.21 34.77 32.50 34.65 38.40 39.19 40.46 41.14 41.13 40.37 41.94 44.06 43.44 46.28 48.80 54.23 58.14 60.13 61.24 62.90 64.28 69.10 70.34 70.66 71.45 71.40 71.53 71.44 70.90 69.84 68.58 67.99 67.54 67.29 66.54 65.97 65.76 66.35 66.55 65.73 64.21 63.14 62.04 61.12 60.68 60.62
50.97 47.94 43.79 39.31 35.91 39.34 39.13 41.01 38.80 39.58 40.74 41.98 40.84 40.89 42.31 45.84 47.91 49.58 53.72 58.34 58.93 59.52 61.32 64.97 68.56 69.22 69.75 69.74 70.30 69.73 69.95 68.89 67.81 67.00 67.41 67.02 66.16 65.06 63.85 63.07 63.72 63.27 62.53 61.73 60.85 59.92 59.68 59.40 59.16
46.89 43.57 36.80 34.20 34.89 38.89 39.55 41.27 39.99 39.58 41.01 39.52 41.21 41.60 41.29 43.78 46.25 49.39 55.13 57.90 57.78 57.30 59.19 62.33 67.85 68.58 68.23 68.40 69.06 68.88 68.57 68.04 67.21 66.74 66.61 65.96 64.19 62.56 61.63 60.97 61.12 60.66 60.19 59.53 59.03 59.11 59.17 59.14 57.89
43.33 41.55 35.20 31.77 33.80 39.22 40.89 40.96 39.56 39.08 39.02 38.93 40.82 40.24 42.01 42.58 46.31 48.58 54.66 55.33 56.37 56.64 57.78 60.46 64.91 66.78 67.48 67.69 68.56 68.26 67.66 67.48 66.68 66.23 65.08 63.50 61.80 60.91 60.01 59.61 59.35 59.11 58.95 58.46 58.60 58.04 57.40 56.81 56.39
42.15 39.12 34.52 32.17 34.55 38.11 40.72 39.80 38.25 38.68 40.48 41.34 40.58 40.46 42.34 42.67 45.36 50.23 53.04 53.17 54.27 55.46 56.63 58.12 60.24 62.97 64.81 66.03 66.62 66.85 67.24 66.26 65.46 64.54 63.06 61.29 60.25 59.55 58.80 58.62 58.72 58.87 58.51 58.43 56.41 56.22 55.81 55.70 54.96
43.00 40.42 33.73 33.47 34.03 37.41 40.49 38.84 39.64 40.34 41.11 40.39 42.31 40.97 41.63 43.19 45.86 49.64 50.69 51.24 52.59 53.89 55.10 55.65 56.69 57.91 58.31 59.58 63.29 64.25 64.73 64.38 63.62 62.72 61.51 60.35 59.45 58.69 58.10 58.55 58.35 58.29 57.96 56.45 55.35 54.43 54.31 53.76 52.79
41.61 36.06 32.14 34.91 35.14 38.48 40.27 38.76 42.81 41.04 41.00 39.82 43.24 41.86 42.64 41.29 46.45 47.70 46.28 48.16 49.60 51.95 52.68 53.30 54.05 54.51 54.84 55.12 57.34 60.55 62.47 61.95 61.15 59.96 58.63 54.06 47.77 48.95 49.34 52.37 57.99 57.00 56.38 55.09 53.77 52.32 51.35 50.38 50.09
41.56 33.98 36.05 38.37 37.73 39.31 40.07 40.20 41.27 42.24 40.34 38.90 40.73 42.29 40.33 40.87 43.67 46.53 46.49 48.62 48.97 50.49 51.79 51.92 51.55 52.01 51.89 53.77 53.45 53.86 55.17 54.53 52.75 51.14 49.07 45.18 43.61 44.29 46.66 51.40 56.00 55.56 54.75 53.04 52.11 50.17 47.81 42.37 37.51
40.44 38.20 39.23 41.59 42.14 41.96 41.25 39.65 41.10 39.24 40.15 41.03 41.94 43.31 41.27 40.23 41.24 45.32 47.00 49.24 50.51 51.92 51.86 51.49 50.98 49.92 49.54 50.15 50.09 50.08 49.79 49.01 48.19 46.62 43.85 41.55 40.56 42.93 43.38 42.74 41.60 40.76 43.91 39.30 39.95 37.48 36.51 36.43 36.22
39.55 42.14 41.91 42.72 43.37 41.62 41.20 41.56 40.23 40.91 46.44 45.12 44.14 43.54 40.51 40.56 40.78 43.21 45.21 46.52 47.75 48.54 50.88 51.05 50.22 49.11 48.00 47.63 49.06 48.31 47.82 45.51 44.77 43.57 41.74 38.05 38.14 39.38 39.12 37.29 35.74 35.18 34.98 34.65 34.75 34.85 35.09 35.24 35.67
39.52 41.24 43.53 43.80 42.29 42.98 42.38 42.94 41.53 40.36 44.79 43.98 43.37 42.33 41.79 40.93 40.96 42.35 44.33 45.01 44.55 45.22 49.39 49.71 49.46 49.74 48.64 45.98 46.36 46.15 45.94 45.45 43.37 41.04 40.52 38.13 38.26 37.09 36.48 35.48 34.42 33.62 33.72 33.73 33.28 33.52 33.96 33.96 34.38
39.72 40.84 41.44 41.48 42.33 42.36 42.22 44.00 41.19 43.48 42.22 43.86 41.65 42.33 41.29 40.52 42.07 40.49 40.03 42.47 41.22 44.27 46.12 48.98 48.64 49.58 48.24 46.97 45.72 46.90 45.58 42.80 40.75 39.11 39.54 37.86 37.87 36.40 35.86 34.81 33.83 32.91 33.02 32.83 32.89 32.68 32.46 32.52 33.30
40.32 38.92 38.78 38.77 39.72 39.97 40.47 39.05 37.80 44.99 41.28 42.72 41.68 40.87 40.96 40.97 40.68 41.82 44.61 43.65 43.98 43.61 43.04 45.58 48.08 48.46 47.37 46.94 44.91 45.11 44.14 41.57 40.31 39.46 37.85 37.75 37.34 36.00 35.28 34.45 32.81 32.45 32.41 32.58 32.17 31.75 31.36 31.23 32.19
35.26 35.15 32.55 36.85 37.57 38.75 39.87 33.96 41.71 41.38 38.78 40.63 41.22 41.46 41.26 42.64 42.33 42.82 44.08 44.35 43.88 43.76 41.32 42.30 46.36 46.91 46.72 46.65 44.08 43.51 41.81 41.71 40.70 38.42 37.97 37.68 36.95 35.89 34.47 33.81 32.47 32.13 31.78 31.45 30.90 30.28 30.06 30.00 30.12
31.07 29.64 30.25 34.22 39.09 38.03 37.17 34.67 40.53 39.65 39.14 40.06 40.68 41.62 41.95 44.96 45.07 43.71 43.58 44.10 43.24 43.36 42.64 40.39 42.58 44.26 45.28 45.36 42.87 41.60 40.12 40.47 39.56 37.47 37.40 36.91 36.66 35.63 35.01 33.57 32.03 31.68 30.86 30.39 30.59 29.24 29.33 28.89 29.42
29.88 27.76 29.97 30.58 37.19 34.73 34.04 35.36 40.05 41.63 39.84 39.72 41.18 43.10 44.05 44.50 45.61 47.76 44.38 42.11 42.62 42.30 42.84 41.37 40.78 42.50 42.93 43.01 39.33 36.89 36.50 37.50 36.13 37.11 36.55 36.07 36.65 35.08 34.07 32.59 31.69 31.13 30.23 29.54 29.08 28.97 28.87 28.77 28.26
30.76 30.29 30.21 33.49 37.65 33.22 36.94 37.54 39.17 40.91 39.43 41.81 43.00 42.94 43.31 44.48 46.26 46.52 43.72 41.97 40.53 38.86 39.29 39.82 38.69 40.17 40.80 39.36 37.36 36.37 37.97 36.51 36.29 36.64 36.66 36.12 35.60 34.55 33.81 32.43 31.01 30.49 30.03 29.35 28.78 28.65 28.29 27.74 27.63
32.55 32.16 33.29 36.48 38.18 33.54 34.71 35.50 39.06 40.53 41.34 41.98 42.73 43.56 43.70 43.86 44.35 45.00 41.37 39.39 38.86 39.70 39.15 38.69 38.52 38.62 40.29 40.30 40.18 37.37 39.82 36.07 37.87 36.01 34.45 35.20 33.71 33.56 33.41 32.50 31.14 30.43 28.97 28.45 28.21 28.64 27.41 27.40 26.82
31.21 30.45 33.63 32.66 33.87 32.93 31.33 32.93 33.36 37.55 37.84 40.92 41.60 43.11 41.17 41.48 43.40 44.62 40.41 39.21 38.30 37.47 37.28 38.81 38.63 38.10 39.72 39.24 37.52 31.46 31.53 30.59 30.94 31.24 32.51 32.20 33.48 33.08 33.01 32.26 31.49 30.34 29.72 29.00 27.99 27.66 28.19 26.72 26.49
32.78 35.66 34.95 33.37 29.51 27.70 31.20 27.35 31.36 35.86 37.25 38.03 40.26 38.61 39.33 40.54 40.55 40.61 39.94 38.53 38.77 39.33 37.64 37.78 37.36 37.11 38.66 38.45 36.93 36.18 36.08 35.13 35.86 37.17 36.41 34.07 33.05 32.56 32.20 31.98 31.08 30.38 29.23 27.59 27.91 27.97 27.09 27.44 26.08
33.99 34.78 32.84 30.22 28.32 26.23 26.23 24.57 30.20 32.20 33.95 37.04 38.46 39.33 38.84 39.43 39.06 39.62 39.75 39.40 39.05 37.81 36.32 35.92 36.29 36.26 37.84 38.04 37.64 37.30 37.29 37.66 32.33 32.44 33.06 32.71 31.40 31.82 31.24 31.06 29.80 29.21 29.11 27.81 28.16 26.92 26.62 26.55 26.73
34.33 31.61 29.86 28.03 27.47 22.89 28.75 27.55 33.75 30.64 33.01 35.45 38.69 42.84 39.72 39.85 39.81 39.28 38.92 37.75 37.52 35.04 33.52 33.43 34.61 34.99 35.99 36.88 36.69 37.12 36.85 30.84 31.80 30.28 31.62 30.80 30.21 29.47 29.46 29.96 29.92 29.48 28.65 27.77 27.99 27.17 26.70 26.23 26.05
31.83 28.87 22.30 19.97 18.94 22.53 26.98 25.10 34.33 36.93 39.23 37.77 38.40 38.57 38.87 38.69 37.68 37.97 37.98 37.14 36.31 33.87 32.13 32.18 32.75 32.78 33.78 35.01 35.36 35.69 35.47 32.31 33.52 31.69 32.66 30.62 30.05 30.04 29.94 30.01 29.00 28.12 28.58 27.60 27.39 27.12 26.35 26.07 25.47
30.07 31.45 23.92 19.67 17.71 26.83 24.00 24.39 35.47 37.77 38.76 38.85 37.06 37.54 36.45 37.84 37.86 37.52 37.89 35.42 34.94 33.91 31.84 32.70 32.55 32.40 32.34 33.22 33.82 33.35 33.46 33.31 33.76 32.13 32.75 31.52 31.99 32.07 30.17 28.98 28.42 28.01 27.37 27.13 27.06 26.80 26.17 25.43 25.61
28.93 28.10 33.22 27.64 28.31 22.61 29.83 31.47 36.93 39.01 35.77 35.91 34.15 35.37 36.22 37.99 38.08 38.67 38.29 36.01 34.29 33.12 32.38 32.30 32.17 32.70 32.18 32.11 32.31 32.31 32.56 32.62 32.48 30.32 30.61 31.50 31.83 31.01 28.55 28.89 27.64 26.83 27.06 26.92 26.47 26.70 25.65 25.44 25.17
32.73 33.35 26.20 25.46 20.84 18.91 24.95 28.18 30.90 36.62 39.47 37.52 36.40 36.06 37.36 37.59 38.00 38.05 38.87 37.88 35.02 33.60 32.42 32.32 32.44 32.58 32.15 32.31 33.52 33.70 33.46 33.72 32.45 30.46 30.53 30.11 30.37 28.64 27.51 28.15 27.61 26.64 26.96 26.73 26.39 25.78 24.94 24.77 24.45
30.80 28.64 28.69 29.42 28.35 24.45 23.27 28.58 36.95 38.97 40.12 36.01 35.75 38.69 38.79 35.97 35.66 36.24 36.89 37.26 37.40 35.74 33.80 32.64 31.84 31.45 31.41 31.14 32.27 31.54 30.66 31.39 30.98 30.09 30.43 30.51 28.96 28.03 27.37 28.16 27.40 26.72 26.52 26.50 26.18 25.87 24.75 24.60 23.66
33.25 34.15 33.20 28.17 26.09 27.52 27.91 28.09 39.67 39.34 41.03 36.79 33.43 33.34 34.43 34.06 33.53 34.60 35.17 35.41 36.00 36.94 38.20 37.56 34.28 32.82 32.58 32.06 31.95 30.50 31.08 30.10 29.49 29.94 29.60 29.58 28.55 27.85 28.16 27.75 27.03 26.89 26.90 26.29 26.27 24.92 24.67 23.88 22.97
MSLP
1015.33 1015.31 1015.48 1016.01 1018.00 1018.87 1018.36 1017.12 1016.11 1015.31 1014.90 1014.46 1014.66 1015.07 1015.14 1015.15 1015.64 1016.04 1015.00 1014.92 1015.07 1015.20 1015.59 1015.71 1015.87 1016.16 1016.42 1016.67 1016.90 1017.20 1017.46 1017.59 1017.79 1018.00 1018.24 1018.38 1018.63 1018.88 1018.97 1018.97 1019.06 1018.91 1019.07 1019.20 1019.26 1019.59 1019.82 1019.84 1019.93
1015.45 1015.40 1015.99 1017.31 1018.62 1019.30 1018.15 1016.68 1015.83 1014.98 1014.54 1014.50 1014.62 1014.76 1014.94 1014.83 1014.73 1014.76 1014.94 1014.84 1014.93 1015.06 1015.44 1015.78 1015.91 1016.18 1016.50 1016.68 1016.96 1017.18 1017.35 1017.59 1017.90 1018.11 1018.37 1018.64 1018.87 1019.05 1019.19 1019.30 1019.28 1019.18 1019.27 1019.54 1019.84 1019.92 1020.06 1020.13 1020.22
1015.36 1015.66 1016.89 1018.11 1019.30 1019.07 1017.67 1016.00 1015.11 1014.60 1014.47 1014.54 1014.66 1014.62 1014.64 1014.27 1014.32 1014.41 1014.15 1014.49 1014.87 1015.15 1015.43 1015.76 1015.99 1016.25 1016.60 1016.75 1017.00 1017.25 1017.48 1017.59 1017.95 1018.30 1018.62 1018.84 1018.99 1019.18 1019.46 1019.63 1019.53 1019.52 1019.80 1020.01 1020.13 1020.18 1020.22 1020.27 1020.35
1015.85 1016.58 1018.18 1018.53 1018.89 1018.01 1016.84 1015.31 1015.03 1014.68 1014.52 1014.58 1014.60 1014.84 1014.46 1013.63 1013.81 1013.83 1014.05 1014.47 1014.90 1015.22 1015.40 1015.64 1015.93 1016.24 1016.56 1016.90 1017.04 1017.35 1017.62 1017.69 1018.10 1018.47 1018.70 1018.84 1019.17 1019.47 1019.74 1019.73 1019.78 1019.89 1020.15 1020.33 1020.33 1020.33 1020.43 1020.51 1020.51
1016.76 1017.76 1018.61 1018.88 1018.35 1017.14 1016.09 1015.03 1014.84 1014.73 1014.53 1014.60 1014.72 1014.61 1014.42 1013.62 1013.85 1014.12 1014.31 1014.65 1015.07 1015.47 1015.61 1015.79 1015.91 1016.15 1016.44 1016.80 1017.12 1017.45 1017.66 1017.90 1018.36 1018.58 1018.79 1019.04 1019.39 1019.65 1019.82 1020.07 1020.11 1020.31 1020.34 1020.45 1020.50 1020.51 1020.68 1020.77 1020.86
1017.71 1018.54 1019.24 1019.19 1018.09 1016.83 1015.71 1014.95 1014.79 1014.61 1014.56 1014.69 1014.84 1014.75 1014.24 1013.86 1014.24 1014.58 1014.77 1014.92 1015.02 1015.43 1015.71 1015.90 1015.94 1016.17 1016.46 1016.70 1016.95 1017.29 1017.67 1017.83 1018.31 1018.56 1018.94 1019.26 1019.49 1019.86 1020.10 1020.18 1020.31 1020.39 1020.53 1020.66 1020.73 1020.98 1021.07 1021.22 1021.24
1017.90 1018.96 1019.18 1018.76 1017.96 1016.74 1015.42 1014.95 1014.69 1014.47 1014.51 1014.49 1014.60 1014.90 1014.07 1014.03 1014.13 1014.57 1014.96 1015.37 1015.59 1015.71 1015.87 1015.92 1015.96 1016.12 1016.50 1016.74 1017.01 1017.33 1017.55 1017.89 1018.32 1018.66 1019.06 1019.44 1019.73 1020.01 1020.17 1020.28 1020.39 1020.53 1020.71 1020.86 1021.13 1021.23 1021.34 1021.55 1021.47
1017.78 1018.81 1019.04 1018.43 1017.68 1016.20 1014.95 1014.68 1014.11 1014.37 1014.18 1014.33 1014.55 1014.64 1014.20 1014.18 1014.63 1015.08 1015.42 1015.57 1015.62 1015.80 1015.88 1016.07 1016.13 1016.21 1016.48 1016.74 1016.91 1017.27 1017.59 1017.92 1018.29 1018.70 1019.11 1019.58 1019.83 1020.06 1020.31 1020.47 1020.39 1020.58 1020.81 1021.08 1021.22 1021.43 1021.57 1021.66 1021.77
1017.62 1018.55 1018.77 1017.91 1017.12 1015.51 1014.64 1014.50 1013.80 1013.80 1014.07 1014.24 1014.07 1013.88 1013.71 1014.44 1015.06 1015.52 1015.92 1016.09 1016.12 1016.00 1015.80 1015.85 1016.04 1016.23 1016.48 1016.76 1016.94 1017.21 1017.57 1018.04 1018.42 1018.83 1019.22 1019.66 1020.13 1020.43 1020.59 1020.64 1020.57 1020.74 1020.97 1021.12 1021.28 1021.62 1021.78 1021.94 1022.04
1017.60 1018.46 1017.69 1016.48 1015.88 1015.06 1014.48 1014.34 1013.81 1013.85 1013.81 1013.81 1013.59 1013.35 1013.81 1014.56 1015.14 1015.32 1015.58 1015.64 1015.85 1015.71 1015.58 1015.78 1015.92 1016.10 1016.40 1016.62 1016.91 1017.19 1017.50 1017.94 1018.41 1018.95 1019.43 1019.96 1020.43 1020.62 1020.74 1020.78 1020.77 1020.94 1021.10 1021.27 1021.47 1021.82 1022.09 1022.53 1022.67
1017.24 1017.28 1016.46 1015.53 1015.06 1014.79 1014.48 1014.09 1013.64 1013.78 1013.35 1012.86 1013.15 1012.84 1013.47 1014.29 1014.81 1015.00 1014.84 1014.74 1014.15 1014.40 1015.08 1015.26 1015.72 1015.96 1016.32 1016.59 1016.89 1017.16 1017.58 1018.02 1018.50 1018.93 1019.44 1020.03 1020.48 1020.65 1020.94 1021.22 1021.53 1021.73 1021.87 1022.09 1022.21 1022.49 1022.71 1022.85 1022.85
1016.97 1016.12 1015.80 1015.06 1014.76 1014.76 1014.51 1013.90 1013.68 1013.59 1011.84 1011.56 1011.68 1012.06 1012.67 1013.50 1014.11 1013.96 1013.86 1013.68 1013.75 1014.02 1014.23 1014.80 1015.28 1015.75 1016.13 1016.45 1016.74 1017.10 1017.52 1017.91 1018.45 1018.89 1019.29 1019.92 1020.57 1020.95 1021.26 1021.70 1022.08 1022.23 1022.37 1022.48 1022.69 1022.84 1022.94 1023.02 1022.95
1016.44 1015.73 1015.36 1014.79 1014.86 1014.67 1014.41 1013.50 1013.72 1012.71 1010.98 1011.11 1011.60 1011.84 1012.03 1012.48 1012.63 1012.76 1012.82 1012.80 1013.11 1013.20 1013.52 1013.96 1014.69 1015.11 1015.60 1016.27 1016.63 1016.98 1017.25 1017.51 1017.93 1018.57 1019.03 1019.56 1020.16 1020.68 1021.12 1021.54 1021.88 1022.10 1022.33 1022.55 1022.79 1022.80 1022.80 1022.99 1023.02
1015.66 1015.54 1015.17 1014.79 1014.68 1014.47 1014.40 1012.92 1013.42 1011.03 1010.71 1010.82 1011.20 1010.94 1011.06 1011.56 1011.21 1011.79 1011.94 1011.55 1012.12 1012.05 1012.24 1012.89 1013.26 1013.93 1014.72 1015.29 1015.75 1016.15 1016.70 1017.15 1017.73 1018.21 1018.53 1019.10 1019.64 1020.17 1020.85 1021.31 1021.74 1022.09 1022.20 1022.43 1022.66 1022.79 1022.88 1023.17 1023.14
1015.60 1015.89 1015.16 1014.44 1013.86 1014.07 1013.95 1013.87 1012.53 1010.33 1010.81 1010.69 1010.28 1010.41 1010.18 1010.11 1010.25 1010.08 1009.44 1009.73 1009.78 1010.27 1011.10 1011.47 1012.20 1013.04 1013.51 1014.12 1014.82 1015.41 1016.03 1016.84 1017.35 1017.69 1018.17 1018.71 1019.23 1019.77 1020.31 1020.88 1021.48 1021.85 1022.19 1022.42 1022.88 1023.02 1023.25 1023.45 1023.49
1015.95 1016.15 1015.62 1014.07 1014.23 1013.69 1013.75 1012.95 1010.49 1010.19 1010.45 1010.52 1009.90 1009.68 1009.47 1008.92 1008.75 1008.22 1008.13 1008.10 1008.49 1009.17 1009.51 1010.25 1010.95 1011.69 1012.49 1013.02 1013.78 1014.59 1015.26 1015.86 1016.48 1017.16 1017.64 1018.24 1018.78 1019.18 1019.86 1020.59 1021.32 1021.75 1022.34 1022.70 1022.95 1023.12 1023.42 1023.44 1023.45
1016.66 1016.37 1015.76 1014.72 1013.42 1013.82 1013.76 1012.24 1010.64 1010.01 1010.21 1010.18 1009.52 1008.68 1008.56 1007.64 1007.01 1006.57 1006.71 1006.93 1007.41 1007.69 1008.36 1009.08 1009.70 1010.30 1011.15 1012.27 1013.11 1013.83 1014.57 1015.25 1015.80 1016.53 1017.06 1017.61 1018.15 1018.66 1019.32 1020.10 1020.81 1021.45 1022.18 1022.59 1022.52 1023.05 1023.22 1023.43 1023.41
1016.50 1016.61 1015.77 1015.05 1013.34 1013.32 1013.22 1011.80 1010.92 1010.35 1009.89 1009.12 1008.83 1007.97 1007.21 1006.60 1005.21 1004.70 1005.58 1005.81 1006.19 1006.54 1007.05 1007.74 1008.60 1009.24 1010.29 1011.61 1012.71 1013.54 1014.33 1014.95 1015.53 1016.05 1016.58 1017.13 1017.63 1018.20 1018.92 1019.75 1020.54 1021.21 1021.91 1022.35 1022.51 1022.83 1023.32 1023.44 1023.49
1016.18 1016.22 1015.65 1014.51 1013.61 1013.47 1012.34 1011.10 1010.64 1009.92 1009.58 1007.94 1007.24 1006.88 1005.95 1005.17 1004.59 1004.24 1004.37 1004.76 1005.34 1005.98 1006.68 1007.27 1008.07 1008.59 1009.65 1010.69 1011.78 1013.09 1013.18 1014.15 1014.89 1015.15 1015.60 1016.28 1017.02 1017.74 1018.43 1019.30 1020.18 1020.74 1021.39 1021.70 1022.11 1022.59 1023.16 1023.43 1023.33
1016.56 1016.17 1015.47 1013.95 1013.43 1013.37 1012.19 1010.07 1009.81 1008.98 1007.77 1007.55 1006.17 1005.46 1005.31 1004.87 1004.39 1003.55 1004.14 1004.67 1005.14 1005.03 1005.60 1006.34 1006.93 1007.91 1008.47 1009.24 1010.07 1011.00 1011.93 1013.01 1013.50 1014.39 1015.10 1015.65 1016.45 1017.18 1017.92 1018.63 1019.42 1020.05 1020.81 1021.27 1021.61 1021.88 1022.88 1023.13 1023.15
1016.18 1016.39 1015.09 1014.67 1013.97 1013.44 1012.05 1008.84 1008.67 1007.41 1006.65 1005.95 1005.82 1004.69 1005.19 1004.96 1004.07 1003.46 1004.29 1004.72 1004.89 1004.81 1004.98 1005.22 1005.82 1006.53 1007.48 1008.73 1009.95 1011.10 1012.03 1013.02 1013.73 1014.27 1014.74 1015.08 1015.63 1016.34 1017.01 1017.83 1018.63 1019.44 1019.97 1020.56 1020.92 1021.31 1021.77 1022.59 1023.21
1015.21 1014.71 1014.84 1015.08 1015.27 1014.43 1013.23 1008.13 1007.77 1006.85 1006.23 1005.68 1004.81 1005.25 1004.82 1004.48 1004.81 1004.20 1004.01 1003.79 1003.87 1003.68 1004.06 1004.53 1005.59 1006.54 1006.83 1007.43 1008.57 1009.40 1009.86 1010.98 1011.07 1011.74 1013.09 1014.12 1014.75 1015.40 1016.17 1017.03 1017.84 1018.64 1019.44 1020.12 1020.51 1020.98 1021.29 1021.57 1022.66
1013.76 1013.75 1014.64 1014.96 1015.18 1014.68 1013.81 1012.83 1006.72 1006.29 1005.95 1004.98 1004.80 1004.50 1004.85 1004.41 1004.36 1004.06 1003.79 1003.42 1002.93 1002.94 1003.43 1004.23 1004.59 1005.77 1006.77 1007.16 1007.03 1007.72 1008.63 1009.53 1010.35 1011.48 1012.72 1013.70 1014.63 1015.20 1015.80 1016.39 1017.27 1018.07 1018.77 1019.34 1019.88 1020.49 1020.76 1021.04 1021.66
1014.10 1014.38 1015.08 1015.92 1015.64 1014.78 1012.71 1012.25 1003.12 1005.97 1005.38 1004.78 1004.48 1004.37 1004.91 1005.01 1004.78 1004.04 1003.60 1003.61 1003.61 1003.60 1003.90 1003.99 1004.69 1005.20 1006.31 1007.32 1007.72 1007.84 1008.41 1009.08 1010.07 1011.31 1012.26 1013.35 1014.27 1014.94 1015.39 1015.84 1016.35 1017.00 1017.80 1018.49 1019.14 1019.81 1020.24 1020.70 1021.05
1014.32 1015.14 1015.78 1016.31 1016.43 1013.83 1011.83 1011.55 1006.62 1005.05 1004.76 1004.86 1004.82 1004.81 1005.03 1005.38 1005.49 1004.81 1004.17 1003.90 1003.95 1004.36 1004.72 1005.14 1005.37 1005.66 1006.01 1006.86 1007.55 1007.91 1008.08 1008.46 1009.09 1009.82 1010.80 1011.96 1013.20 1014.14 1014.70 1015.13 1015.59 1016.20 1016.81 1017.69 1018.46 1019.24 1019.68 1020.12 1020.75
1013.51 1014.19 1015.21 1014.74 1014.85 1013.29 1012.14 1009.47 1004.81 1005.22 1004.56 1004.09 1004.47 1005.13 1005.45 1005.50 1005.22 1005.10 1004.97 1004.80 1004.64 1004.71 1004.79 1004.80 1005.37 1005.70 1005.85 1006.14 1006.81 1007.26 1008.02 1008.62 1008.96 1009.46 1009.77 1010.61 1011.21 1011.90 1013.21 1014.70 1015.49 1015.97 1016.60 1017.24 1018.02 1018.71 1019.30 1019.78 1020.30
1013.21 1013.22 1012.99 1013.16 1013.17 1013.08 1010.90 1008.14 1006.03 1004.09 1004.15 1004.27 1004.69 1005.39 1006.35 1006.18 1005.92 1005.09 1005.03 1005.00 1004.58 1005.09 1005.19 1004.91 1005.25 1005.26 1005.58 1006.11 1006.78 1007.05 1006.89 1007.68 1008.57 1008.80 1009.43 1010.16 1010.63 1011.34 1012.19 1013.06 1014.17 1015.24 1015.59 1016.20 1017.04 1017.85 1018.47 1019.29 1019.92
1011.81 1012.34 1012.70 1013.42 1013.09 1011.60 1009.57 1007.92 1006.21 1004.46 1003.50 1005.02 1005.58 1006.36 1007.00 1006.93 1006.92 1006.22 1006.42 1006.19 1006.17 1006.41 1006.65 1006.90 1006.81 1006.61 1006.20 1006.16 1006.27 1006.58 1006.87 1006.60 1007.13 1008.16 1008.91 1009.03 1009.76 1010.65 1011.69 1012.47 1013.13 1014.32 1015.42 1015.88 1016.31 1016.99 1017.64 1018.32 1019.09
1012.15 1011.91 1012.21 1012.20 1012.10 1010.81 1009.13 1007.32 1006.08 1005.35 1005.22 1006.52 1007.53 1007.62 1008.50 1008.94 1008.56 1007.96 1007.86 1007.57 1007.70 1007.38 1006.96 1007.24 1007.04 1007.26 1007.42 1007.64 1007.77 1007.36 1007.43 1007.37 1007.32 1007.78 1007.97 1008.42 1009.36 1010.07 1010.76 1011.41 1012.36 1012.97 1014.16 1015.11 1015.76 1016.19 1016.93 1017.71 1018.47
1011.03 1011.53 1011.80 1011.72 1010.72 1010.00 1008.85 1007.42 1006.75 1006.61 1006.75 1009.30 1011.01 1011.21 1011.04 1010.77 1010.41 1010.22 1009.51 1009.29 1008.75 1008.06 1007.87 1008.14 1008.08 1007.29 1006.97 1007.10 1006.93 1006.73 1006.88 1007.25 1007.37 1007.84 1007.75 1007.71 1008.11 1009.03 1009.72 1010.54 1011.43 1012.20 1012.91 1013.92 1014.74 1015.34 1015.89 1016.64 1017.40
Wind_Speed
2 2 3 5 5 6 4 6 3 3 2 2 7 5 8 4 7 7 4 8 3 10 7 7 10 14 13 13 13 13 13 13 11 10 11 11 11 8 6 8 8 11 12 12 12 10 9 11 9
1 1 5 3 5 2 6 4 6 6 2 2 2 2 1 7 2 4 1 8 7 9 7 6 10 10 11 12 13 13 14 14 12 12 10 10 10 11 9 6 6 7 9 8 8 9 9 10 10
1 4 4 5 4 5 5 6 5 2 1 2 2 1 2 5 3 4 6 10 8 7 7 6 9 12 10 12 13 12 14 15 12 10 10 10 10 9 9 8 8 8 8 8 8 9 9 9 10
3 5 5 4 6 8 7 6 3 1 1 3 1 6 5 4 5 5 6 9 8 7 7 9 12 14 12 10 11 10 11 11 12 12 12 12 10 10 10 8 9 10 9 8 9 9 10 11 11
5 4 3 2 5 7 6 6 4 3 2 2 3 5 5 3 2 4 7 9 9 6 5 6 12 13 16 16 14 14 13 13 13 13 12 12 11 10 9 8 9 9 9 9 9 10 10 11 11
5 4 3 3 5 6 7 5 3 3 2 1 2 2 7 1 2 4 5 7 7 8 6 5 9 11 12 15 15 15 15 14 15 14 13 12 11 10 10 9 9 9 9 9 11 11 10 10 11
6 4 3 3 5 7 4 4 3 3 1 6 2 2 6 4 6 7 7 6 5 5 6 6 6 7 10 11 12 13 15 15 15 15 14 13 12 12 11 10 11 11 11 11 10 10 10 10 11
6 5 1 4 2 7 3 2 2 5 5 2 4 6 7 1 6 6 5 5 6 6 6 6 5 6 6 5 10 9 12 13 13 12 11 11 10 11 10 8 11 12 12 12 11 10 10 10 10
3 4 3 6 5 6 2 1 2 2 2 3 8 6 4 3 7 6 3 2 4 5 7 7 7 6 6 6 6 9 12 11 12 10 12 9 4 5 6 5 11 12 13 12 12 11 10 10 10
5 4 8 6 5 5 3 4 5 1 5 5 6 7 3 5 5 8 9 11 9 10 11 8 7 7 7 5 6 6 6 5 6 6 7 5 5 5 5 3 8 10 11 11 11 11 10 7 3
5 7 6 7 8 5 5 4 5 5 8 11 10 9 7 6 8 9 11 12 18 14 8 11 9 7 7 6 4 3 3 4 4 7 7 6 4 3 3 3 3 3 6 3 5 5 4 5 3
3 9 7 4 4 2 5 5 6 8 21 8 14 8 5 10 12 15 15 15 14 12 13 10 10 9 8 5 5 5 5 4 5 5 7 5 4 4 4 3 4 3 2 4 3 3 4 4 4
5 5 6 7 4 8 5 15 8 10 21 8 8 9 12 10 12 11 14 12 9 12 13 13 12 12 10 9 5 5 6 6 6 6 7 6 5 5 5 5 4 4 3 4 4 4 4 3 3
2 4 7 6 7 8 8 19 5 14 6 13 6 13 12 12 15 7 10 18 14 15 16 14 17 15 13 13 11 9 7 6 6 5 7 7 5 5 5 5 4 4 4 3 3 3 3 3 3
3 8 9 6 6 8 7 10 12 21 2 13 13 11 11 14 9 18 19 18 19 17 14 18 17 16 16 17 12 9 8 7 7 7 7 8 7 7 7 5 5 4 3 5 4 3 2 3 1
3 1 5 2 4 4 8 11 22 8 6 13 14 11 10 14 12 16 16 17 14 14 18 16 16 18 18 17 12 9 9 9 8 7 7 9 8 8 7 6 5 5 4 4 4 3 2 2 2
3 6 8 11 11 6 9 11 14 6 6 10 12 13 12 19 18 15 15 15 12 16 15 16 18 19 19 15 11 11 10 9 7 6 7 9 9 9 7 6 5 6 5 4 4 2 2 1 1
9 6 7 7 8 7 6 17 14 15 10 18 17 19 20 21 27 20 11 10 11 13 15 15 15 17 17 11 7 5 5 6 5 7 8 9 8 9 8 6 7 6 5 4 3 3 3 2 0
3 6 11 8 9 4 20 22 18 17 11 25 22 18 21 21 21 18 9 9 9 8 10 14 14 15 14 12 12 7 12 9 8 8 12 12 9 10 9 6 7 6 7 6 6 4 4 1 1
5 11 18 14 15 6 13 21 17 20 22 20 24 24 18 17 18 20 8 7 9 11 13 12 15 15 15 12 11 4 10 6 8 7 8 10 10 10 10 10 9 9 6 7 7 6 4 2 1
4 7 17 14 7 6 10 15 8 10 8 13 19 22 10 14 20 21 7 7 9 10 13 15 16 17 16 12 8 4 6 4 4 4 6 8 12 13 12 12 10 10 8 8 7 6 6 5 1
15 12 13 11 6 8 5 20 7 9 11 8 16 8 13 13 9 10 10 8 10 12 8 9 10 13 14 17 15 15 10 10 10 11 9 10 13 13 13 12 11 11 7 7 7 5 4 5 5
12 4 7 4 5 5 1 4 3 4 7 12 9 9 7 8 8 11 11 10 9 7 9 9 12 13 13 16 17 15 14 9 4 5 9 10 9 11 12 12 11 10 8 7 9 7 7 4 5
2 2 4 4 2 7 10 9 18 4 4 3 8 14 9 9 12 13 8 8 10 5 2 7 10 11 10 12 13 16 14 8 9 8 10 8 7 7 10 12 12 11 10 10 9 7 8 6 4
3 4 4 4 1 11 3 3 15 9 15 8 10 10 7 9 10 12 11 12 10 5 1 3 6 7 8 11 11 12 12 12 14 13 12 13 10 9 12 13 12 10 11 10 9 8 7 7 5
9 11 9 8 6 12 4 9 19 6 7 11 6 7 5 9 8 10 10 7 8 6 4 7 8 7 7 9 10 7 7 6 7 9 9 10 11 13 12 12 10 11 11 10 9 6 5 6 5
4 6 3 2 2 2 12 15 15 14 6 4 2 5 7 10 9 10 11 8 7 6 5 6 7 7 8 9 7 8 10 10 10 9 9 9 9 8 12 15 13 12 13 13 12 9 9 8 6
7 3 2 2 4 7 7 14 13 23 24 7 9 9 9 9 10 11 14 13 10 7 6 7 7 6 4 7 10 10 11 12 10 10 12 11 11 10 13 15 14 14 12 12 13 9 8 11 8
2 4 4 2 6 11 16 13 10 21 22 9 10 11 14 19 19 18 17 17 16 11 9 7 6 6 7 5 6 6 5 6 7 10 11 12 9 12 14 15 15 16 16 14 13 12 12 13 11
5 11 9 12 10 11 13 12 14 16 22 21 20 17 17 18 19 16 14 14 15 15 16 16 11 8 8 6 7 8 7 8 8 10 10 12 14 14 15 15 15 15 16 16 17 16 14 15 14
Wind_Direction
6 20 70 42 49 59 271 265 271 263 252 173 123 147 195 177 170 211 309 199 183 153 167 173 165 181 182 180 173 177 186 168 164 146 146 142 127 103 92 97 92 89 87 80 72 68 56 55 55
350 157 45 78 90 51 267 250 239 232 265 113 139 147 223 250 242 273 153 206 182 157 160 167 170 166 176 179 175 178 173 161 151 136 134 124 123 128 119 129 112 110 99 97 102 91 82 69 62
94 39 83 95 117 192 226 222 243 267 198 177 277 219 228 233 237 228 215 166 156 156 158 164 170 176 179 170 167 177 167 160 147 145 163 166 163 156 150 146 134 129 114 112 102 92 83 79 73
49 11 35 99 224 249 219 249 227 283 241 229 200 278 281 229 177 197 155 157 151 162 159 171 174 183 179 182 172 173 170 168 169 177 186 169 162 155 152 141 130 122 122 112 99 92 87 83 76
34 53 54 313 260 265 254 259 187 212 266 194 163 265 257 251 20 140 152 153 160 162 165 172 179 186 192 192 186 185 184 177 183 182 171 162 158 153 144 141 129 125 115 105 98 90 84 79 74
39 93 38 261 264 274 279 258 167 206 224 226 196 294 245 323 176 185 157 159 151 158 169 183 187 196 190 198 196 188 189 183 180 176 169 164 158 156 151 143 133 122 113 106 94 90 86 79 76
112 88 229 252 264 304 260 141 199 209 233 256 154 243 265 284 209 153 147 132 144 159 165 183 185 176 184 195 184 187 182 179 179 173 172 166 163 160 151 147 139 131 122 109 99 90 84 78 71
110 96 270 250 262 272 316 223 236 177 257 63 177 241 265 341 130 114 112 144 168 179 185 189 186 173 176 186 175 188 173 174 174 171 163 155 156 153 147 155 143 138 130 122 113 107 101 85 74
127 65 242 251 184 249 197 253 224 139 265 219 208 216 232 99 122 106 119 195 214 224 205 191 186 184 177 175 180 176 169 169 166 158 140 117 117 116 119 180 151 144 137 128 120 112 102 89 77
111 142 227 213 207 243 277 200 266 269 258 256 273 258 158 145 172 173 184 204 210 214 212 202 193 187 175 174 178 165 161 153 145 139 128 130 145 150 158 158 142 139 134 128 119 109 98 86 73
178 209 215 243 225 260 268 278 218 166 275 225 220 242 194 182 203 210 218 208 212 210 202 200 195 184 178 185 171 162 156 147 149 152 148 148 147 147 113 85 62 61 82 64 89 86 73 77 67
231 244 224 247 202 281 260 301 258 180 255 217 223 233 172 202 209 213 217 217 210 200 207 195 192 188 192 174 182 172 168 164 166 168 156 153 155 159 150 141 149 146 142 123 116 118 120 103 88
218 242 248 245 263 259 298 262 236 243 256 260 254 244 237 228 224 225 228 235 207 214 205 197 188 195 191 188 181 179 187 181 173 168 170 161 166 164 150 157 160 161 153 152 146 140 123 106 94
230 257 270 286 246 238 206 270 144 257 275 278 217 252 243 231 233 223 219 231 213 217 207 192 197 193 185 195 190 192 185 175 171 174 178 172 165 157 163 160 170 168 165 144 139 137 113 84 61
300 312 312 215 247 234 165 296 230 250 257 268 275 265 268 238 218 226 233 227 217 215 202 199 194 191 193 196 192 188 184 174 182 185 175 174 171 169 165 161 165 171 153 136 135 110 101 109 125
305 180 307 13 127 264 155 256 272 248 241 269 274 279 278 275 242 234 234 233 213 205 201 191 191 191 196 197 189 187 182 183 186 181 175 178 176 169 162 158 168 153 154 157 150 139 124 113 81
336 249 224 301 211 189 185 252 256 282 199 259 273 272 270 275 271 247 235 232 214 210 200 196 188 192 193 194 186 187 179 187 185 172 178 181 179 171 164 163 159 154 156 167 154 113 130 121 35
233 235 254 244 278 180 225 251 275 285 285 261 263 274 272 268 264 276 247 220 218 207 201 194 190 192 185 177 162 150 162 182 158 181 185 179 182 171 159 155 155 154 154 166 161 138 67 116 30
169 238 251 262 264 299 277 275 269 271 271 278 277 266 266 266 278 274 254 220 215 203 191 195 186 186 170 172 172 177 195 183 189 188 187 185 178 173 168 160 157 162 172 174 163 126 144 63 14
251 270 272 276 264 248 272 272 277 264 254 250 268 277 274 286 287 282 268 223 207 209 199 190 192 180 184 184 186 172 181 193 193 179 182 179 169 170 170 169 176 173 162 167 175 159 145 137 42
208 234 265 267 304 253 300 279 234 273 249 257 261 262 280 261 272 288 320 242 241 224 201 197 192 182 181 173 152 82 86 67 124 174 182 184 178 176 176 176 175 177 173 180 181 170 166 146 58
263 224 255 271 351 280 5 296 176 230 262 272 266 274 262 280 296 277 288 262 235 242 205 182 175 179 180 169 171 178 187 182 202 193 191 189 185 179 177 177 177 178 174 172 178 173 173 135 155
240 176 239 192 203 317 246 276 109 105 222 267 290 272 283 302 297 295 291 277 258 226 192 184 164 170 184 187 184 183 192 189 146 145 166 179 184 185 181 177 172 175 178 176 172 170 175 179 149
104 99 58 47 95 280 185 177 300 159 239 249 315 313 336 328 322 311 305 303 298 345 192 158 168 167 170 187 194 199 197 150 149 158 168 172 176 179 185 180 182 182 177 176 180 176 173 178 158
142 85 315 331 26 233 80 159 251 289 279 268 278 277 302 327 315 324 333 343 341 328 147 131 146 164 164 184 194 200 195 179 181 173 178 171 175 192 202 189 185 182 180 176 167 173 176 172 174
184 170 174 216 249 281 95 245 267 236 280 260 268 264 321 325 338 342 337 351 335 324 158 152 172 179 179 184 194 184 191 191 198 187 179 181 188 189 175 188 187 183 176 172 171 171 172 163 168
181 180 239 324 272 258 266 273 301 295 302 344 323 347 337 331 329 332 335 352 1 320 250 192 191 192 184 188 186 197 181 183 194 177 176 189 192 181 170 179 180 183 180 175 172 177 173 168 166
176 194 211 339 240 243 233 261 267 290 291 300 303 332 330 278 312 347 8 12 19 353 336 325 313 277 231 207 204 204 212 200 183 177 196 185 181 168 173 180 182 180 186 182 178 177 169 168 173
188 234 216 199 198 253 265 255 262 274 297 343 352 335 5 20 17 15 15 19 14 3 3 338 326 315 295 287 289 265 253 216 191 198 196 191 173 175 178 183 185 182 185 186 185 182 173 180 174
188 249 241 240 248 242 263 262 298 316 314 26 41 26 5 10 6 3 8 6 12 14 13 9 341 326 306 270 243 231 222 208 208 220 211 184 181 181 183 183 185 189 190 186 189 184 181 180 179